[[{"header":{"parameterUnit":"m.s-1","parameterCategory":1,"la1":30.2991,"la2":30.254,"lo1":-89.0895,"lo2":-89.0444,"dy":0.0017,"dx":0.0017,"nx":28,"ny":28,"refTime":"2025-05-16T21:00:00:Z","depth":0,"parameterNumber":2,"parameterNumberName":"U-component_of_WINDS"},"data":[0,0,0,0,0,0,0,0,0,0,0,0,0,0,0,0,0,0,0,0,0,0,0,0,0,0,0,0,0,0,0,0,0,0,0,0,0,0,0,0,0,0,0,0,0,0,0,0,0,0,0,0,0,0,0,0,0,0,2.2369,2.237,0,2.2472,2.2473,2.2474,2.2488,2.2487,2.2486,2.2485,2.2588,2.2591,2.2595,0,0,0,0,0,0,0,0,0,0,0,0,0,2.2182,2.2186,2.2369,2.237,2.2372,2.2472,2.2473,2.2474,2.2488,2.2487,2.2486,2.2484,2.2586,2.2591,2.2595,0,0,0,0,0,0,0,0,0,0,0,0,0,2.2272,2.2187,2.2369,2.2391,2.2394,2.2471,2.2473,2.2475,2.2488,2.2487,2.2485,2.2484,2.2585,2.259,2.2596,2.2658,0,0,2.2612,2.2615,0,0,0,0,0,0,0,0,2.2267,2.2279,2.2386,2.2389,2.2393,2.2466,2.2445,2.2536,2.2489,2.2452,2.2485,2.2483,2.2548,2.2556,2.2579,2.2663,2.2668,2.2613,2.2616,2.2618,2.262,0,0,0,0,0,0,0,2.2261,2.2274,2.241,2.2388,2.2392,2.2394,2.2405,2.2462,2.2507,2.2455,2.2456,2.2469,2.255,2.2573,2.2581,2.2669,2.2613,2.2618,2.2621,2.2623,2.2809,2.281,0,0,0,0,0,0,2.2251,2.2269,2.2406,2.2413,2.2325,2.2399,2.2411,2.2444,2.2506,2.2515,2.247,2.2469,2.2565,2.2575,2.2585,2.2661,2.2618,2.2624,2.2627,2.2807,2.2809,2.2811,0,0,0,0,0,0,2.2247,2.2263,2.2402,2.2341,2.2359,2.2404,2.244,2.2446,2.247,2.2517,2.2525,2.2486,2.2564,2.2577,2.264,2.2665,2.2626,2.2631,2.2805,2.2808,2.281,2.2815,0,0,0,0,0,0,2.2241,2.2261,2.2286,2.2342,2.2363,2.2456,2.2441,2.2449,2.248,2.248,2.2535,2.2542,2.2564,2.2632,2.2645,2.2672,2.2635,2.2803,2.2806,2.2809,2.2813,2.2818,2.2822,0,0,0,0,0,2.2234,2.2283,2.2287,2.2304,2.2395,2.2458,2.2469,2.2494,2.2482,2.2507,2.2537,2.2541,2.266,2.2638,2.2653,2.2682,2.2801,2.2805,2.2809,2.2811,2.2817,2.2822,0,0,0,0,0,0,2.2229,2.2291,2.2296,2.2365,2.2406,2.246,2.2492,2.2499,2.2544,2.2542,2.257,2.2582,2.2643,2.2669,2.2643,2.2745,2.273,2.2737,2.2726,2.2732,2.2736,2.2728,2.264,0,0,0,0,0,2.2236,2.2283,2.2334,2.2389,2.241,2.2447,2.2476,2.2491,2.2535,2.2552,2.2587,2.2628,2.2675,2.2705,2.2751,2.2817,2.2829,2.2845,2.2849,2.2852,2.2857,2.2893,2.2901,2.2823,2.2823,2.2823,0,0,2.225,2.229,2.2318,2.2389,2.2423,2.247,2.2462,2.2512,2.2547,2.2559,2.262,2.2647,2.2695,2.276,2.279,2.2783,2.2882,2.2857,2.2859,2.2863,2.2898,2.2905,2.2912,2.2826,2.2825,2.2825,0,0,2.23,2.2335,2.2385,2.2419,2.247,2.2495,2.2507,2.256,2.2578,2.264,2.265,2.2692,2.2772,2.2806,2.2833,2.2895,2.29,2.2909,2.2931,2.2966,2.2972,2.2978,2.2999,2.3006,2.2915,2.2915,2.2915,0,2.2311,2.2383,2.2409,2.2459,2.249,2.2504,2.2554,2.2585,2.2649,2.2669,2.2661,2.2762,2.2795,2.2867,2.2882,2.2904,2.2918,2.2903,2.2969,2.2975,2.2981,2.3001,2.3009,2.2915,2.2915,2.2915,2.2915,0,2.2393,2.2443,2.2476,2.2538,2.2573,2.2622,2.2655,2.2687,2.2699,2.2724,2.2786,2.2827,2.2881,2.2899,2.2912,2.2973,2.2967,2.2964,2.2948,2.2988,2.3008,2.3016,2.2917,2.2916,2.2916,2.2916,0,0,2.2441,2.2517,2.2529,2.2557,2.2614,2.2653,2.2702,2.2756,2.2782,2.2825,2.2866,2.2934,2.2932,2.2963,2.2979,2.301,2.3055,2.3003,2.3004,2.301,2.3123,2.3124,2.3133,2.3059,2.306,2.3061,2.3118,0,2.2497,2.2587,2.2612,2.2687,2.2733,2.2747,2.279,2.283,2.2854,2.2896,2.2923,2.297,2.2964,2.2982,2.3013,2.3043,2.3077,2.3039,2.3096,2.3098,2.3082,2.3143,2.3145,2.3196,2.3126,2.3128,2.3129,0,2.2574,2.2619,2.2699,2.275,2.277,2.2809,2.2859,2.2899,2.2944,2.296,2.2994,2.3008,2.3059,2.3041,2.3111,2.3085,2.311,2.3127,2.313,2.3135,2.3115,2.3149,2.3214,2.3221,2.3141,2.314,2.3139,0,2.2599,2.268,2.2739,2.2762,2.2824,2.285,2.2877,2.292,2.295,2.2994,2.3014,2.3063,2.3089,2.3127,2.3152,2.3138,2.322,2.3205,2.3233,2.3232,2.3249,2.3247,2.3317,2.3267,2.3267,2.3267,2.3267,0,2.2658,2.2706,2.2751,2.2787,2.284,2.2869,2.2921,2.2948,2.2986,2.3027,2.3042,2.3079,2.3112,2.3153,2.3174,2.3228,2.324,2.3253,2.3258,2.3251,2.3249,2.3267,2.3264,2.3269,2.3268,2.3268,2.3268,0,2.2695,2.2728,2.2792,2.2845,2.2859,2.2897,2.2942,2.2976,2.3002,2.3052,2.3066,2.3105,2.3155,2.3185,2.3247,2.3261,2.332,2.3324,2.3305,2.3307,2.3333,2.333,2.3416,2.3428,2.3371,2.3371,2.3372,0,2.273,2.2768,2.2825,2.2853,2.2881,2.2926,2.2957,2.2986,2.3018,2.3071,2.3099,2.315,2.3192,2.327,2.3303,2.3351,2.3355,2.3382,2.3362,2.3354,2.3354,2.3351,2.3354,2.3385,2.3385,2.3386,2.3386,0,2.2788,2.2802,2.2847,2.2897,2.2933,2.2974,2.3014,2.3037,2.3072,2.3107,2.3158,2.319,2.3254,2.3304,2.3354,2.338,2.3389,2.3392,2.3401,2.3394,2.3381,2.3387,2.3313,2.339,2.3389,2.3389,2.3389,2.3389,2.2824,2.2858,2.2903,2.2952,2.2986,2.3023,2.3058,2.3088,2.3131,2.3186,2.32,2.3254,2.3296,2.3365,2.3393,2.3434,2.343,2.3443,2.3446,2.3448,2.3448,2.3375,2.3443,2.3443,2.3443,2.3443,2.3443,0,2.2882,2.2912,2.2957,2.3013,2.3051,2.3057,2.3102,2.3133,2.318,2.322,2.3261,2.3319,2.3367,2.3404,2.3453,2.3479,2.3484,2.3491,2.3488,2.3494,2.345,2.3437,2.3486,2.3486,2.3486,2.3486,2.3486,2.3486,2.2916,2.2973,2.2992,2.3065,2.3095,2.3148,2.3173,2.3207,2.3238,2.3303,2.3343,2.3368,2.3406,2.3458,2.3502,2.3511,2.3528,2.3534,2.3544,2.3502,2.3497,2.3493,2.348,2.3538,2.3538,2.3585,2.3585,2.3585]},{"header":{"parameterUnit":"m.s-1","parameterCategory":1,"la1":30.2991,"la2":30.254,"lo1":-89.0895,"lo2":-89.0444,"dy":0.0017,"dx":0.0017,"nx":28,"ny":28,"refTime":"2025-05-16T21:00:00:Z","depth":0,"parameterNumber":3,"parameterNumberName":"V-component_of_WINDS"},"data":[0,0,0,0,0,0,0,0,0,0,0,0,0,0,0,0,0,0,0,0,0,0,0,0,0,0,0,0,0,0,0,0,0,0,0,0,0,0,0,0,0,0,0,0,0,0,0,0,0,0,0,0,0,0,0,0,0,0,3.2385,3.2386,0,3.2419,3.242,3.242,3.239,3.2389,3.2388,3.2387,3.2418,3.242,3.2422,0,0,0,0,0,0,0,0,0,0,0,0,0,3.2292,3.2294,3.2385,3.2386,3.2386,3.2419,3.242,3.242,3.239,3.2389,3.2387,3.2386,3.2417,3.2419,3.2422,0,0,0,0,0,0,0,0,0,0,0,0,0,3.233,3.2294,3.2385,3.2376,3.2375,3.2419,3.242,3.242,3.2391,3.2389,3.2387,3.2385,3.2416,3.2419,3.2422,3.2477,0,0,3.2431,3.2432,0,0,0,0,0,0,0,0,3.2327,3.2333,3.2377,3.2376,3.2376,3.2399,3.2398,3.2439,3.2391,3.2385,3.2387,3.2384,3.2413,3.2416,3.2426,3.2478,3.2479,3.2431,3.2433,3.2434,3.2435,0,0,0,0,0,0,0,3.2325,3.2331,3.2399,3.2377,3.2377,3.2368,3.2372,3.2406,3.2408,3.2385,3.2383,3.2388,3.2412,3.2423,3.2427,3.248,3.2431,3.2434,3.2436,3.2437,3.2578,3.258,0,0,0,0,0,0,3.2324,3.2329,3.2398,3.24,3.2347,3.2371,3.2375,3.2393,3.2408,3.2408,3.2389,3.2386,3.2419,3.2423,3.2428,3.2493,3.2434,3.2437,3.2439,3.2576,3.2579,3.2581,0,0,0,0,0,0,3.2322,3.233,3.2396,3.2364,3.2372,3.2375,3.2395,3.2395,3.2406,3.2411,3.2411,3.24,3.2418,3.2423,3.2465,3.2493,3.2438,3.2441,3.2574,3.2577,3.258,3.2623,0,0,0,0,0,0,3.2319,3.233,3.2351,3.2365,3.2374,3.2434,3.2397,3.2397,3.2411,3.2408,3.2421,3.2422,3.2417,3.2461,3.2468,3.2496,3.2443,3.2571,3.2575,3.2579,3.2619,3.2627,3.2634,0,0,0,0,0,3.2316,3.2361,3.2353,3.2361,3.2401,3.2436,3.2441,3.2435,3.2414,3.2435,3.2438,3.2422,3.2489,3.2465,3.2473,3.2503,3.2569,3.2574,3.2578,3.2616,3.2626,3.2634,0,0,0,0,0,0,3.235,3.2363,3.2353,3.2405,3.242,3.2431,3.2458,3.2446,3.2466,3.2462,3.2452,3.2456,3.25,3.2505,3.2478,3.2556,3.2526,3.2532,3.2551,3.2561,3.2568,3.2566,3.2446,0,0,0,0,0,3.2363,3.2392,3.2401,3.2445,3.2454,3.2454,3.2469,3.2464,3.2478,3.2484,3.249,3.2504,3.2529,3.2545,3.2567,3.2619,3.2622,3.2644,3.2651,3.2657,3.2663,3.2691,3.2701,3.2595,3.2595,3.2595,0,0,3.2391,3.2402,3.242,3.2453,3.2463,3.2492,3.246,3.2492,3.2513,3.2489,3.2529,3.2534,3.2548,3.2596,3.2617,3.2602,3.2692,3.2663,3.2668,3.267,3.2697,3.2707,3.2715,3.2598,3.2598,3.2597,0,0,3.2457,3.2468,3.2507,3.2519,3.2536,3.2536,3.2545,3.2559,3.2562,3.2602,3.2585,3.2608,3.2651,3.2662,3.2673,3.2744,3.2729,3.2751,3.279,3.2818,3.2826,3.2833,3.2859,3.2868,3.2756,3.2757,3.2757,0,3.2489,3.2534,3.2527,3.2561,3.2575,3.2556,3.2594,3.2606,3.2629,3.2639,3.2622,3.2674,3.2683,3.2733,3.275,3.276,3.2769,3.275,3.2826,3.2833,3.284,3.2864,3.2873,3.2759,3.2759,3.2759,3.2758,0,3.2572,3.2603,3.2632,3.2657,3.2674,3.271,3.2708,3.2726,3.2719,3.272,3.2761,3.2771,3.2795,3.2807,3.2799,3.2855,3.2845,3.2827,3.2796,3.2852,3.2875,3.2884,3.2763,3.2762,3.2761,3.2761,0,0,3.2661,3.2682,3.2693,3.2704,3.2722,3.2745,3.2779,3.2804,3.282,3.2836,3.2865,3.2901,3.2884,3.2897,3.289,3.2914,3.297,3.2893,3.2893,3.2907,3.3033,3.3047,3.3058,3.296,3.2962,3.2963,3.3031,0,3.2728,3.279,3.2785,3.2842,3.2871,3.2852,3.2882,3.2896,3.2898,3.2921,3.2923,3.2949,3.2925,3.2933,3.2956,3.2958,3.2995,3.2953,3.2986,3.2987,3.2984,3.3069,3.3085,3.3149,3.304,3.3042,3.3043,0,3.2815,3.2836,3.2897,3.2911,3.2922,3.295,3.2972,3.2995,3.3009,3.3009,3.3024,3.3013,3.3047,3.3015,3.3061,3.3033,3.3045,3.3049,3.3051,3.3054,3.3019,3.3075,3.3169,3.3179,3.3056,3.3055,3.3054,0,3.2874,3.2918,3.296,3.297,3.2987,3.3006,3.3014,3.3027,3.3042,3.3061,3.3071,3.3093,3.3106,3.3123,3.3118,3.3095,3.3165,3.3133,3.3166,3.3166,3.3182,3.3181,3.3279,3.3189,3.3189,3.3189,3.3189,0,3.295,3.2988,3.2987,3.3013,3.3055,3.3048,3.3089,3.3094,3.3106,3.3132,3.3117,3.3141,3.3133,3.3157,3.3153,3.3192,3.3197,3.3197,3.3196,3.3199,3.3199,3.3208,3.3204,3.3191,3.3191,3.319,3.319,0,3.3024,3.3024,3.3069,3.3082,3.3086,3.3116,3.3127,3.315,3.3152,3.3184,3.3192,3.3193,3.322,3.3217,3.3247,3.3244,3.3292,3.3285,3.3288,3.3287,3.332,3.3317,3.3428,3.3442,3.3342,3.3343,3.3344,0,3.3073,3.3102,3.3118,3.3135,3.3144,3.3172,3.3188,3.3182,3.3199,3.3218,3.3239,3.3265,3.3286,3.3329,3.3332,3.3355,3.3349,3.3386,3.3352,3.3354,3.335,3.3349,3.3351,3.3393,3.3394,3.3395,3.3396,0,3.3159,3.3158,3.3183,3.3207,3.3227,3.3246,3.3263,3.3277,3.3273,3.3293,3.3321,3.3337,3.3368,3.3394,3.3415,3.3421,3.3408,3.3406,3.3415,3.3419,3.342,3.342,3.3307,3.3404,3.3403,3.3402,3.3402,3.3402,3.3222,3.3248,3.3263,3.3291,3.3303,3.332,3.3343,3.3347,3.3371,3.3397,3.3392,3.3423,3.3436,3.3464,3.3473,3.3497,3.3483,3.3496,3.3499,3.3503,3.3507,3.3415,3.35,3.35,3.35,3.35,3.35,0,3.3309,3.3318,3.3344,3.3369,3.339,3.3376,3.3394,3.3413,3.3442,3.3456,3.3476,3.3509,3.3533,3.3538,3.3562,3.358,3.3574,3.3587,3.3585,3.3587,3.3517,3.3508,3.3591,3.3591,3.3591,3.3591,3.3591,3.3591,3.3356,3.3399,3.3399,3.3447,3.3455,3.3488,3.3499,3.3514,3.3525,3.3562,3.3583,3.3587,3.3597,3.3621,3.3643,3.3644,3.3653,3.3668,3.3666,3.3601,3.3592,3.3583,3.3574,3.367,3.367,3.3734,3.3734,3.3735]}]]